[[{"header":{"parameterUnit":"m.s-1","parameterCategory":1,"la1":30.2991,"la2":30.254,"lo1":-89.0895,"lo2":-89.0444,"dy":0.0017,"dx":0.0017,"nx":28,"ny":28,"refTime":"2024-03-10T09:00:00:Z","depth":0,"parameterNumber":2,"parameterNumberName":"U-component_of_WINDS"},"data":[0,0,0,0,0,0,0,0,0,0,0,0,0,0,0,0,0,0,0,0,0,0,0,0,0,0,0,0,0,0,0,0,0,0,0,0,0,0,0,0,0,0,0,0,0,0,0,0,0,0,0,0,0,0,0,0,0,0,-1.6512,-1.6513,0,-1.6652,-1.6654,-1.6655,-1.6631,-1.6628,-1.6626,-1.6624,-1.6771,-1.6777,-1.6784,0,0,0,0,0,0,0,0,0,0,0,0,0,-1.6227,-1.6232,-1.6512,-1.6514,-1.6515,-1.6652,-1.6654,-1.6656,-1.6631,-1.6628,-1.6625,-1.6623,-1.6769,-1.6777,-1.6784,0,0,0,0,0,0,0,0,0,0,0,0,0,-1.6357,-1.6234,-1.6511,-1.652,-1.6522,-1.6651,-1.6654,-1.6656,-1.6632,-1.6628,-1.6625,-1.6621,-1.6767,-1.6776,-1.6785,-1.6917,0,0,-1.6814,-1.6818,0,0,0,0,0,0,0,0,-1.635,-1.6368,-1.6517,-1.6519,-1.6522,-1.662,-1.6607,-1.6744,-1.6633,-1.659,-1.6624,-1.6619,-1.6724,-1.6737,-1.6772,-1.6924,-1.693,-1.6815,-1.682,-1.6824,-1.6827,0,0,0,0,0,0,0,-1.6341,-1.6361,-1.6567,-1.6519,-1.6522,-1.6517,-1.6532,-1.6633,-1.6677,-1.6594,-1.6592,-1.6609,-1.6725,-1.6763,-1.6775,-1.6933,-1.6814,-1.6823,-1.6828,-1.6832,-1.7201,-1.7205,0,0,0,0,0,0,-1.6329,-1.6354,-1.6563,-1.6572,-1.6425,-1.6525,-1.6542,-1.6592,-1.6675,-1.6684,-1.6612,-1.6607,-1.6748,-1.6764,-1.678,-1.6941,-1.6824,-1.6833,-1.6838,-1.7197,-1.7202,-1.7207,0,0,0,0,0,0,-1.6323,-1.6347,-1.6557,-1.6463,-1.6489,-1.6534,-1.6592,-1.6597,-1.6635,-1.6689,-1.6697,-1.6642,-1.6746,-1.6767,-1.6883,-1.6946,-1.6837,-1.6846,-1.7192,-1.7199,-1.7205,-1.7264,0,0,0,0,0,0,-1.6315,-1.6345,-1.6395,-1.6464,-1.6494,-1.6658,-1.6595,-1.6603,-1.665,-1.6646,-1.672,-1.6728,-1.6745,-1.6869,-1.6892,-1.6957,-1.6853,-1.7187,-1.7195,-1.7203,-1.7257,-1.7272,-1.7284,0,0,0,0,0,-1.6304,-1.6407,-1.6398,-1.6423,-1.6557,-1.6661,-1.6679,-1.6694,-1.6655,-1.6707,-1.6741,-1.6726,-1.6934,-1.6881,-1.6907,-1.6976,-1.7183,-1.7193,-1.7202,-1.7251,-1.7269,-1.7284,0,0,0,0,0,0,-1.6347,-1.6416,-1.6407,-1.6535,-1.6592,-1.6657,-1.6722,-1.6713,-1.6784,-1.6776,-1.6794,-1.6811,-1.6929,-1.6963,-1.6903,-1.7108,-1.7054,-1.7069,-1.7082,-1.7099,-1.7113,-1.7103,-1.6861,0,0,0,0,0,-1.6371,-1.6448,-1.6505,-1.6612,-1.6641,-1.6677,-1.6723,-1.6729,-1.679,-1.6815,-1.6858,-1.6919,-1.6998,-1.705,-1.7126,-1.726,-1.7277,-1.732,-1.7334,-1.7345,-1.7359,-1.7434,-1.7454,-1.7238,-1.7238,-1.7238,0,0,-1.6422,-1.6469,-1.6517,-1.6622,-1.6667,-1.6749,-1.6697,-1.6785,-1.6846,-1.6829,-1.6941,-1.6975,-1.7044,-1.717,-1.7228,-1.7202,-1.7421,-1.7357,-1.7365,-1.7373,-1.7445,-1.7466,-1.7484,-1.7244,-1.7243,-1.7242,0,0,-1.6557,-1.6599,-1.6694,-1.674,-1.6808,-1.6831,-1.6853,-1.6919,-1.6941,-1.7054,-1.7042,-1.7115,-1.7251,-1.7301,-1.7344,-1.7496,-1.7485,-1.752,-1.7593,-1.7666,-1.7683,-1.7699,-1.7755,-1.7775,-1.7533,-1.7533,-1.7533,0,-1.6612,-1.6733,-1.6744,-1.6834,-1.6881,-1.6866,-1.6963,-1.7007,-1.7098,-1.7131,-1.71,-1.727,-1.7315,-1.7454,-1.7491,-1.7525,-1.7553,-1.7513,-1.7679,-1.7695,-1.7709,-1.7763,-1.7784,-1.7537,-1.7537,-1.7536,-1.7536,0,-1.6798,-1.6882,-1.695,-1.7037,-1.7091,-1.7184,-1.721,-1.7264,-1.7266,-1.7292,-1.7408,-1.7461,-1.7547,-1.758,-1.7583,-1.7719,-1.7702,-1.7675,-1.7621,-1.7734,-1.7785,-1.7806,-1.7543,-1.7541,-1.754,-1.7539,0,0,-1.6967,-1.7057,-1.7082,-1.7121,-1.7195,-1.7261,-1.7352,-1.7436,-1.7483,-1.7545,-1.7624,-1.7738,-1.7714,-1.7763,-1.7771,-1.7834,-1.7954,-1.78,-1.7802,-1.7829,-1.8109,-1.8131,-1.8155,-1.7945,-1.7949,-1.7952,-1.8104,0,-1.711,-1.7272,-1.7285,-1.7431,-1.7509,-1.7496,-1.7576,-1.7631,-1.7657,-1.7728,-1.7757,-1.7839,-1.78,-1.7829,-1.7891,-1.7926,-1.8011,-1.7915,-1.8021,-1.8025,-1.8008,-1.8181,-1.8204,-1.8345,-1.8124,-1.8128,-1.813,0,-1.73,-1.7367,-1.7521,-1.7584,-1.7617,-1.7689,-1.7767,-1.7834,-1.7896,-1.791,-1.7964,-1.7963,-1.8059,-1.7999,-1.8133,-1.8067,-1.8111,-1.8134,-1.814,-1.8153,-1.8087,-1.8201,-1.839,-1.8413,-1.8161,-1.8159,-1.8156,0,-1.7411,-1.7539,-1.7648,-1.7681,-1.7756,-1.7808,-1.7842,-1.7899,-1.7949,-1.8016,-1.8049,-1.8127,-1.8171,-1.8232,-1.8253,-1.8207,-1.8386,-1.8328,-1.8403,-1.8403,-1.8444,-1.8442,-1.8646,-1.8467,-1.8467,-1.8467,-1.8466,0,-1.7572,-1.7667,-1.7698,-1.7766,-1.7872,-1.7885,-1.7991,-1.8022,-1.8073,-1.8147,-1.8139,-1.8209,-1.8231,-1.8305,-1.8322,-1.8431,-1.845,-1.8466,-1.847,-1.8468,-1.8467,-1.85,-1.8491,-1.8472,-1.8471,-1.847,-1.8469,0,-1.7714,-1.7739,-1.7857,-1.7918,-1.7935,-1.8011,-1.8064,-1.8129,-1.8153,-1.8247,-1.827,-1.8308,-1.8395,-1.8421,-1.8525,-1.8536,-1.8665,-1.8658,-1.8644,-1.8645,-1.872,-1.8713,-1.8954,-1.8988,-1.8785,-1.8787,-1.8788,0,-1.7817,-1.789,-1.7958,-1.8006,-1.8042,-1.812,-1.817,-1.8185,-1.8238,-1.8313,-1.837,-1.8455,-1.8524,-1.8663,-1.8701,-1.8781,-1.8779,-1.8857,-1.8791,-1.8787,-1.8783,-1.8779,-1.8788,-1.8871,-1.8873,-1.8875,-1.8876,0,-1.7997,-1.8005,-1.8077,-1.8153,-1.8212,-1.8273,-1.8332,-1.8372,-1.8396,-1.8456,-1.8543,-1.8597,-1.8703,-1.8788,-1.8869,-1.8905,-1.8896,-1.8896,-1.8918,-1.8919,-1.8909,-1.8918,-1.8681,-1.8892,-1.889,-1.8889,-1.8888,-1.8887,-1.8125,-1.8189,-1.8247,-1.8328,-1.8373,-1.8427,-1.8492,-1.8523,-1.8596,-1.8683,-1.8687,-1.8783,-1.8843,-1.895,-1.899,-1.9066,-1.9043,-1.9075,-1.9083,-1.9092,-1.9099,-1.8894,-1.9081,-1.908,-1.908,-1.9079,-1.9079,0,-1.8307,-1.8343,-1.8416,-1.8498,-1.8561,-1.8544,-1.8608,-1.8662,-1.8746,-1.8802,-1.8869,-1.8971,-1.9053,-1.9097,-1.9179,-1.9231,-1.9229,-1.9253,-1.9251,-1.926,-1.9114,-1.9087,-1.9253,-1.9253,-1.9253,-1.9253,-1.9253,-1.9253,-1.8409,-1.8518,-1.8533,-1.8664,-1.8699,-1.8792,-1.883,-1.8881,-1.8926,-1.9039,-1.9106,-1.9133,-1.9185,-1.9271,-1.9346,-1.9356,-1.9388,-1.9415,-1.9424,-1.9287,-1.927,-1.9253,-1.9228,-1.9421,-1.9421,-1.9564,-1.9565,-1.9566]},{"header":{"parameterUnit":"m.s-1","parameterCategory":1,"la1":30.2991,"la2":30.254,"lo1":-89.0895,"lo2":-89.0444,"dy":0.0017,"dx":0.0017,"nx":28,"ny":28,"refTime":"2024-03-10T09:00:00:Z","depth":0,"parameterNumber":3,"parameterNumberName":"V-component_of_WINDS"},"data":[0,0,0,0,0,0,0,0,0,0,0,0,0,0,0,0,0,0,0,0,0,0,0,0,0,0,0,0,0,0,0,0,0,0,0,0,0,0,0,0,0,0,0,0,0,0,0,0,0,0,0,0,0,0,0,0,0,0,-4.3836,-4.3837,0,-4.3963,-4.3965,-4.3966,-4.3901,-4.3897,-4.3894,-4.3891,-4.4021,-4.4027,-4.4033,0,0,0,0,0,0,0,0,0,0,0,0,0,-4.3535,-4.3541,-4.3836,-4.3837,-4.3839,-4.3963,-4.3965,-4.3966,-4.3901,-4.3897,-4.3893,-4.3889,-4.4018,-4.4026,-4.4034,0,0,0,0,0,0,0,0,0,0,0,0,0,-4.3664,-4.3543,-4.3835,-4.3821,-4.3821,-4.3962,-4.3965,-4.3967,-4.3902,-4.3897,-4.3892,-4.3887,-4.4016,-4.4025,-4.4035,-4.4197,0,0,-4.4065,-4.407,0,0,0,0,0,0,0,0,-4.3657,-4.3675,-4.3822,-4.3823,-4.3823,-4.3911,-4.3906,-4.4044,-4.3904,-4.3872,-4.3891,-4.3885,-4.3988,-4.4,-4.4035,-4.4203,-4.4209,-4.4066,-4.4072,-4.4076,-4.4079,0,0,0,0,0,0,0,-4.3648,-4.367,-4.3886,-4.3824,-4.3825,-4.3808,-4.3821,-4.3932,-4.3957,-4.3874,-4.387,-4.3886,-4.3987,-4.4025,-4.4037,-4.4211,-4.4066,-4.4075,-4.4081,-4.4085,-4.4517,-4.4523,0,0,0,0,0,0,-4.364,-4.3662,-4.3882,-4.389,-4.3726,-4.3818,-4.3832,-4.3888,-4.3955,-4.3961,-4.389,-4.3882,-4.4011,-4.4026,-4.4042,-4.4236,-4.4076,-4.4086,-4.4091,-4.4512,-4.4519,-4.4525,0,0,0,0,0,0,-4.3634,-4.366,-4.3877,-4.3775,-4.3801,-4.3828,-4.3891,-4.3893,-4.3931,-4.3967,-4.3971,-4.3924,-4.4008,-4.4028,-4.4159,-4.4239,-4.409,-4.4099,-4.4505,-4.4514,-4.4522,-4.4626,0,0,0,0,0,0,-4.3625,-4.3658,-4.3721,-4.3777,-4.3807,-4.3993,-4.3896,-4.3899,-4.3948,-4.3939,-4.4001,-4.4006,-4.4005,-4.4144,-4.4169,-4.425,-4.4107,-4.4498,-4.4509,-4.4519,-4.4615,-4.4636,-4.4655,0,0,0,0,0,-4.3615,-4.3745,-4.3724,-4.3751,-4.3885,-4.3997,-4.4015,-4.4012,-4.3955,-4.4018,-4.4041,-4.4004,-4.4226,-4.4158,-4.4185,-4.4271,-4.4493,-4.4506,-4.4518,-4.4606,-4.4632,-4.4654,0,0,0,0,0,0,-4.3697,-4.3752,-4.373,-4.3881,-4.3935,-4.3986,-4.4065,-4.4039,-4.411,-4.4099,-4.4092,-4.4106,-4.4242,-4.4269,-4.4193,-4.4431,-4.4351,-4.4369,-4.4409,-4.4434,-4.4453,-4.4444,-4.4115,0,0,0,0,0,-4.3733,-4.382,-4.3862,-4.3992,-4.402,-4.4038,-4.4087,-4.408,-4.4135,-4.4158,-4.419,-4.4245,-4.4327,-4.4382,-4.4459,-4.4618,-4.463,-4.469,-4.471,-4.4726,-4.4742,-4.4828,-4.4855,-4.4566,-4.4566,-4.4566,0,0,-4.3808,-4.3848,-4.3903,-4.401,-4.4051,-4.414,-4.4058,-4.4156,-4.4223,-4.4172,-4.4299,-4.4324,-4.4385,-4.4531,-4.4596,-4.4557,-4.4825,-4.4742,-4.4755,-4.4762,-4.4844,-4.4871,-4.4896,-4.4574,-4.4573,-4.4571,0,0,-4.399,-4.4029,-4.4142,-4.4185,-4.4248,-4.4258,-4.4285,-4.4341,-4.4356,-4.4482,-4.4446,-4.4525,-4.4666,-4.4711,-4.4752,-4.4951,-4.492,-4.4976,-4.508,-4.5164,-4.5187,-4.5207,-4.5278,-4.5304,-4.4992,-4.4992,-4.4993,0,-4.4075,-4.4209,-4.4203,-4.4305,-4.4352,-4.4311,-4.4425,-4.4466,-4.4551,-4.4585,-4.454,-4.4717,-4.4754,-4.491,-4.4959,-4.4993,-4.5024,-4.497,-4.5184,-4.5204,-4.5223,-4.5291,-4.5318,-4.4999,-4.4998,-4.4998,-4.4997,0,-4.4311,-4.4405,-4.4488,-4.4572,-4.4628,-4.4736,-4.4745,-4.4803,-4.4791,-4.4806,-4.4935,-4.4979,-4.5065,-4.5101,-4.509,-4.5255,-4.5229,-4.5184,-4.5104,-4.5257,-4.5321,-4.5347,-4.5008,-4.5006,-4.5004,-4.5002,0,0,-4.455,-4.4628,-4.4659,-4.4697,-4.4762,-4.4835,-4.4939,-4.5023,-4.5074,-4.5133,-4.5221,-4.5341,-4.53,-4.5347,-4.5341,-4.5414,-4.5569,-4.536,-4.5362,-4.5398,-4.5754,-4.5788,-4.5818,-4.5548,-4.5553,-4.5557,-4.5749,0,-4.4738,-4.4922,-4.4919,-4.509,-4.5176,-4.5137,-4.5228,-4.5278,-4.5295,-4.5371,-4.5389,-4.5475,-4.5414,-4.5442,-4.5513,-4.5535,-4.5641,-4.5521,-4.563,-4.5634,-4.5617,-4.5852,-4.5888,-4.6068,-4.5774,-4.5778,-4.5781,0,-4.4982,-4.505,-4.5229,-4.5282,-4.5318,-4.5401,-4.5477,-4.555,-4.5605,-4.5612,-4.5665,-4.5646,-4.5752,-4.5668,-4.5814,-4.5733,-4.5776,-4.5794,-4.5801,-4.5812,-4.5718,-4.587,-4.6125,-4.6152,-4.582,-4.5817,-4.5814,0,-4.5139,-4.5275,-4.54,-4.5433,-4.5498,-4.5557,-4.5587,-4.5637,-4.5688,-4.5755,-4.5787,-4.5865,-4.5908,-4.5969,-4.5971,-4.591,-4.6119,-4.6035,-4.6128,-4.6128,-4.6175,-4.6172,-4.6441,-4.6202,-4.6201,-4.6201,-4.62,0,-4.535,-4.5461,-4.5472,-4.5549,-4.5673,-4.5667,-4.579,-4.5814,-4.5859,-4.594,-4.591,-4.5986,-4.5985,-4.6062,-4.6065,-4.6186,-4.6205,-4.6213,-4.6213,-4.6217,-4.6216,-4.6247,-4.6235,-4.6208,-4.6206,-4.6205,-4.6204,0,-4.5547,-4.5559,-4.5693,-4.5743,-4.5758,-4.5847,-4.589,-4.5963,-4.5976,-4.6079,-4.6102,-4.6124,-4.6214,-4.6222,-4.6326,-4.6328,-4.6474,-4.6459,-4.6455,-4.6453,-4.6546,-4.6538,-4.6846,-4.6886,-4.6619,-4.6621,-4.6624,0,-4.5681,-4.5766,-4.5825,-4.5878,-4.5911,-4.5995,-4.6046,-4.6044,-4.6099,-4.6168,-4.6233,-4.6319,-4.6389,-4.6534,-4.6558,-4.6637,-4.6625,-4.6728,-4.6637,-4.6638,-4.6628,-4.6623,-4.6632,-4.6746,-4.6749,-4.6751,-4.6753,0,-4.5918,-4.592,-4.5995,-4.6074,-4.6136,-4.6197,-4.6254,-4.6298,-4.6303,-4.6366,-4.6457,-4.6511,-4.6617,-4.6703,-4.6781,-4.681,-4.6783,-4.6781,-4.6807,-4.6812,-4.6807,-4.6812,-4.6504,-4.6774,-4.6772,-4.6771,-4.6769,-4.6769,-4.6089,-4.6163,-4.6216,-4.6301,-4.6344,-4.6398,-4.6469,-4.6491,-4.6568,-4.6654,-4.6648,-4.6749,-4.6801,-4.6903,-4.6938,-4.7017,-4.6982,-4.702,-4.7029,-4.7039,-4.7049,-4.6793,-4.7031,-4.703,-4.703,-4.7029,-4.7029,0,-4.6325,-4.6357,-4.6436,-4.6517,-4.6584,-4.6551,-4.6613,-4.6671,-4.676,-4.6812,-4.6881,-4.6986,-4.7069,-4.71,-4.7181,-4.7238,-4.7228,-4.726,-4.7256,-4.7264,-4.7075,-4.7045,-4.7267,-4.7267,-4.7267,-4.7267,-4.7267,-4.7267,-4.6456,-4.6579,-4.6587,-4.6731,-4.6762,-4.6861,-4.6899,-4.6948,-4.6989,-4.7108,-4.7177,-4.7197,-4.724,-4.7324,-4.7399,-4.7406,-4.7438,-4.7476,-4.7477,-4.7301,-4.7277,-4.7254,-4.7226,-4.7482,-4.7483,-4.766,-4.7661,-4.7662]}]]